Погода в Дуньхуа

Китай     43°21′37″N   128°14′42″E
темп.,
°C
ветер,
м/с
пор.,
м/с
влажн.,
%
обл.,
%
осадки,
мм/ч
давл.,
гПа
погр.,
м
11 апреля, вс
вс1123:00+5ю3647100 0.0 1026122
02:00+5ююз3859100 0.0 1027157
05:00+4ююз3863100 0.0 1027159
08:00+11юз61342100 0.0 1026828
11:00+16юз71235100 0.0 10241941
14:00+17юз7113469 0.0 10222589
17:00+16зюз51035100 0.0 10221904
20:00+12юз5124462 0.0 1023496
12 апреля, пн
пн1223:00+10юз51350100 0.0 1023487
02:00+9ююз3858100 0.0 1022248
05:00+8ю2560100 0.0 1021118
08:00+12ююз51046100 0.0 10191201
11:00+16юз71029100 0.0 10152939
14:00+15юз8936100 0.0 10122070
17:00+11зюз71157100 0.0 10121367
20:00+8зюз51070100 0.0 1013690
13 апреля, вт
вт1323:00+6зюз51087100 0.1 1011902
02:00+1сз5979100 0.7 1013649
05:00−2зсз61167100 0.0 1015730
08:00−1сз710420 0.0 1016892
11:00+2сз810261 0.0 10161915
14:00+4сз8102588 0.0 10142413
17:00+2зсз7103298 0.0 10142392
20:00−1зсз38314 0.0 1017386
14 апреля, ср
ср1423:00−3зюз36380 0.0 1017141
02:00−4зюз233992 0.0 101749
05:00−2ссз1436100 0.1 1017183
08:00+1ссз354282 0.1 10171434
11:00+4сз6827100 0.0 10162654
14:00+7зсз68195 0.0 10152638
17:00+6зсз5821100 0.0 10162199
20:00+1юз22315 0.0 101816
15 апреля, чт
чт1523:000ююз32340 0.0 101828
02:00−1ююз34385 0.0 101856
05:00−2ююв23445 0.0 101734
08:00+8ю482870 0.0 1013583
11:00+13ююз71124100 0.0 10091561
14:00+16юз8122174 0.0 10063259
17:00+13ююз8133493 0.0 10051893
20:00+9юз71841100 0.1 10072192